Wind_Speed
8 8 7 7 7 7 7 7 7 7 7 7 6 6 6 6 6 6 6 6 6 6 6 5 5 4 4 3 3 1 1 2 2 3 2 3 3 4 4 5 5 5 5
11 10 9 9 9 9 9 9 9 8 8 8 8 8 8 7 7 7 7 7 7 7 7 6 6 5 5 4 3 2 1 1 2 2 2 2 3 4 4 4 4 4 5
13 12 11 11 10 10 10 10 10 10 9 9 9 9 8 8 8 8 8 8 8 8 8 7 7 6 6 5 4 3 2 2 1 1 1 2 3 3 3 3 3 4 4
15 13 13 12 11 11 11 11 11 11 10 10 10 10 9 9 9 9 9 9 9 9 9 8 8 7 7 6 5 4 3 3 2 1 0 1 2 2 3 3 3 3 3
17 16 14 13 13 12 12 13 12 12 12 11 11 10 10 10 10 10 10 10 9 9 9 9 9 9 8 7 6 6 5 4 3 2 1 1 0 1 1 1 2 2 2
18 17 15 15 15 14 14 14 14 13 13 12 12 11 11 11 11 11 10 11 11 10 11 11 10 10 9 8 7 7 6 6 5 4 3 3 2 1 1 0 0 0 1
20 18 17 15 15 15 15 15 15 15 14 13 13 13 12 12 12 12 11 12 12 11 12 12 11 11 10 10 9 8 7 6 6 6 6 5 4 3 2 2 1 1 1
20 17 16 16 16 16 17 17 17 17 16 15 15 14 14 13 13 12 12 12 12 12 13 13 13 12 12 11 11 9 8 8 7 7 7 6 5 5 4 4 3 2 2
20 18 17 16 16 17 17 18 18 18 17 17 16 16 15 14 14 13 13 13 13 13 13 13 14 13 13 13 12 11 10 9 8 9 9 8 8 7 6 5 4 4 3
18 17 17 17 17 17 18 18 18 18 18 18 17 17 16 16 15 15 15 14 14 14 14 14 14 14 14 14 13 13 11 10 10 10 10 10 9 9 8 7 7 6 5
17 17 17 17 17 18 18 18 18 18 18 18 18 17 17 17 16 16 16 15 15 15 15 15 15 15 15 15 14 14 13 12 12 11 11 11 11 10 9 9 8 8 7
16 17 16 14 15 18 19 18 18 18 18 18 18 18 17 17 17 17 17 17 16 16 17 16 16 17 17 16 16 15 14 13 13 13 13 12 12 12 11 11 10 10 9
16 16 15 15 14 15 17 17 17 17 18 18 18 18 18 18 18 18 18 18 18 18 18 18 18 18 18 18 17 17 16 15 15 15 15 15 14 13 13 13 12 12 11
12 12 12 13 13 13 14 16 16 17 18 19 19 19 19 19 19 19 19 18 18 18 18 18 18 19 19 20 19 19 18 17 17 17 16 16 16 15 15 14 14 14 13
12 12 13 12 11 12 14 16 17 17 19 19 20 20 20 20 20 20 20 20 20 20 20 19 19 19 20 20 21 21 20 19 19 19 19 19 17 17 16 16 16 16 15
14 13 11 12 12 12 14 15 16 17 18 18 20 21 21 21 21 20 20 21 21 21 21 21 21 21 21 21 22 22 22 21 21 21 20 19 19 19 18 18 18 17 17
15 14 14 12 13 14 15 17 17 18 19 19 20 21 21 21 21 22 22 22 22 22 22 23 22 22 22 22 23 22 22 23 23 22 22 21 21 20 20 20 20 20 19
15 13 13 12 13 15 16 17 18 18 20 21 21 20 20 21 22 23 23 23 23 24 24 23 24 24 23 24 24 24 23 23 24 23 23 23 22 21 21 21 21 21 21
14 14 15 15 15 15 16 18 18 19 21 22 23 22 22 23 23 23 24 24 24 25 25 25 25 25 25 24 25 25 25 25 25 24 25 24 24 24 24 24 23 23 23
15 14 15 16 16 17 18 19 19 21 21 23 24 24 24 24 24 25 25 25 26 26 26 26 26 26 26 26 26 26 26 26 26 26 26 26 25 25 25 25 24 24 25
16 16 16 16 16 18 19 19 21 23 24 24 25 26 26 26 26 26 26 27 27 27 28 28 27 27 27 27 26 27 27 27 28 27 27 27 27 26 26 25 25 25 26
17 18 17 17 18 18 19 21 22 24 25 26 26 27 27 27 27 28 27 28 28 28 28 28 28 28 27 27 27 26 27 27 28 29 28 27 27 26 26 26 26 26 27
17 18 18 18 19 19 20 21 22 23 24 25 26 27 28 28 28 28 28 28 28 29 29 29 29 28 28 27 28 27 27 27 28 28 28 27 28 28 28 28 27 27 28
16 17 18 19 19 20 20 22 22 23 24 26 26 27 28 28 29 29 29 29 29 29 29 30 30 29 29 29 29 28 28 27 27 27 28 28 28 28 28 28 28 29 28
16 17 18 18 19 20 21 22 23 24 25 26 26 27 27 28 28 28 29 29 29 28 29 29 30 30 30 30 29 29 28 28 27 28 28 28 28 28 28 28 29 30 31
16 17 18 18 19 19 20 21 22 23 24 24 25 25 26 26 27 27 28 28 29 29 29 29 30 30 30 29 29 30 29 29 29 29 29 30 29 29 29 29 30 30 31
Wind_Direction
272 263 252 246 238 230 226 225 226 226 225 227 232 236 243 251 257 264 269 280 289 293 294 297 299 295 295 298 294 282 174 131 109 106 105 96 87 82 80 77 76 80 83
266 263 251 244 238 232 227 225 226 227 230 232 235 240 247 253 259 265 273 281 290 295 297 296 294 294 296 297 293 286 244 173 143 128 115 94 78 70 69 69 71 76 81
263 258 246 244 240 234 230 229 229 230 233 235 238 241 248 255 261 266 272 278 286 293 295 295 293 292 295 298 294 287 270 240 207 178 136 93 72 60 61 62 69 78 81
262 259 248 246 242 237 233 232 232 233 235 238 241 245 250 255 261 266 272 276 282 288 291 292 291 291 292 297 296 291 283 267 252 237 206 92 75 61 54 58 66 78 85
260 258 245 242 243 239 236 234 233 235 237 239 242 246 250 254 258 265 271 274 279 285 286 289 290 289 289 294 297 296 292 281 267 254 252 242 135 67 42 50 61 78 87
254 250 245 241 241 237 235 233 233 235 237 240 242 244 248 252 256 261 267 272 276 279 283 286 287 286 284 287 291 294 291 285 274 261 256 251 252 252 271 311 33 94 106
247 244 244 241 239 236 236 235 236 236 237 240 242 244 247 252 256 260 264 269 273 275 278 281 283 284 281 282 283 285 284 281 273 261 254 251 248 246 255 258 256 251 216
240 241 236 237 237 237 237 237 237 237 238 240 243 246 249 253 256 260 263 267 270 272 273 275 277 279 278 277 278 279 280 277 270 263 255 247 251 249 253 254 248 245 237
237 232 228 233 237 237 236 236 236 237 239 241 243 246 249 252 255 259 262 264 267 269 271 272 273 273 275 275 277 276 274 272 270 267 260 254 252 251 254 254 247 242 240
229 227 228 232 237 237 236 237 238 238 240 243 244 247 249 253 256 257 260 262 263 265 267 268 268 268 270 272 274 273 270 268 267 267 263 255 252 251 252 254 251 247 244
233 232 230 230 234 237 235 236 238 239 241 244 246 247 249 252 256 259 261 262 264 266 266 265 265 264 266 268 269 270 268 266 263 262 261 257 254 251 252 255 256 253 250
228 230 236 236 239 240 237 235 237 238 240 244 246 249 250 252 257 260 262 263 266 267 267 264 263 263 265 265 265 265 265 263 262 260 259 258 254 251 252 256 257 255 254
221 223 233 239 238 239 236 233 237 240 242 244 247 251 252 255 259 261 263 264 265 267 267 265 263 263 264 265 264 263 261 260 260 259 258 256 253 250 252 255 258 257 257
223 228 237 240 241 246 244 241 241 243 245 246 247 251 255 258 261 263 265 265 264 266 267 266 267 264 264 265 264 263 262 260 257 257 258 256 253 254 252 253 257 259 258
242 248 254 247 244 250 245 242 243 245 247 246 248 252 253 256 259 262 264 267 267 264 264 264 265 265 265 264 262 261 260 259 256 256 256 255 254 255 256 256 256 257 258
274 268 263 252 247 246 247 243 242 241 246 250 254 253 253 255 258 261 262 263 265 265 266 269 268 267 267 266 263 261 260 259 257 256 256 253 255 255 255 256 255 256 258
284 282 277 266 254 253 249 247 246 248 250 252 252 255 254 255 256 259 261 262 264 267 267 270 269 267 266 265 263 262 261 260 256 256 254 254 253 253 254 255 255 256 258
290 285 286 279 270 260 252 249 249 254 256 258 259 258 257 256 258 260 262 264 265 267 268 268 267 266 266 266 265 264 264 261 256 256 254 253 254 255 256 256 257 256 258
296 289 287 281 277 272 265 261 256 257 258 260 261 260 260 259 261 262 261 263 265 266 266 267 266 265 265 266 265 263 263 261 256 256 256 254 254 254 256 255 256 257 258
296 293 289 283 282 275 269 266 264 262 261 262 263 261 261 262 262 262 262 263 264 265 266 265 264 265 265 266 266 264 262 260 256 257 257 257 255 256 257 258 258 260 260
295 295 296 287 283 278 275 273 270 267 264 263 263 263 262 262 263 264 264 264 264 265 265 264 263 265 265 265 264 263 262 260 257 258 257 257 257 256 255 256 258 260 261
295 295 295 288 284 281 279 277 273 270 267 265 264 263 263 264 264 265 266 265 265 266 266 264 262 264 266 265 263 262 261 261 261 259 256 257 257 256 256 257 257 258 261
294 294 292 289 287 285 281 278 276 273 270 268 266 265 264 264 265 265 266 265 265 265 265 263 261 262 264 264 264 263 260 260 260 258 257 257 257 256 255 256 257 259 261
297 296 293 290 288 285 282 279 277 275 274 270 268 267 266 265 265 266 266 265 266 265 264 262 261 261 261 262 263 261 259 259 258 257 258 259 257 255 255 255 257 259 260
298 297 296 293 290 287 284 280 278 277 276 274 271 269 267 267 267 266 266 266 267 266 266 264 262 261 262 261 262 261 259 257 257 258 258 259 259 260 258 258 260 260 258
295 296 296 296 294 290 287 283 282 281 278 277 274 271 269 268 267 267 266 266 267 267 267 266 263 261 260 259 259 259 259 258 257 257 259 258 260 261 260 262 263 261 260
Height
5901 5900 5901 5901 5901 5902 5902 5903 5904 5904 5904 5905 5905 5906 5906 5907 5907 5908 5908 5908 5907 5907 5906 5906 5905 5904 5903 5903 5902 5901 5901 5900 5899 5899 5898 5897 5896 5896 5895 5894 5894 5893 5892
5900 5900 5900 5900 5901 5901 5902 5902 5903 5903 5904 5904 5905 5905 5906 5906 5907 5907 5907 5907 5907 5907 5906 5906 5905 5904 5904 5903 5902 5901 5901 5900 5900 5899 5898 5897 5896 5896 5895 5894 5894 5893 5893
5898 5898 5899 5899 5900 5900 5901 5901 5902 5903 5903 5904 5904 5904 5905 5905 5906 5906 5906 5907 5907 5906 5906 5905 5905 5904 5903 5903 5902 5901 5900 5900 5899 5899 5898 5897 5897 5896 5895 5895 5894 5894 5894
5896 5897 5897 5898 5898 5899 5900 5900 5901 5902 5902 5903 5903 5904 5904 5904 5905 5905 5906 5906 5906 5906 5905 5905 5904 5904 5903 5903 5902 5901 5900 5900 5899 5899 5898 5898 5897 5896 5896 5895 5895 5895 5894
5894 5894 5895 5895 5896 5897 5898 5898 5899 5900 5901 5901 5902 5902 5903 5903 5904 5904 5904 5905 5905 5905 5904 5904 5904 5903 5903 5902 5902 5901 5900 5899 5899 5899 5898 5898 5897 5897 5896 5896 5896 5895 5895
5891 5891 5892 5893 5893 5894 5895 5896 5897 5898 5899 5900 5900 5901 5902 5902 5902 5903 5903 5903 5904 5903 5903 5903 5903 5902 5902 5901 5901 5901 5900 5899 5898 5898 5898 5898 5897 5897 5897 5896 5896 5895 5895
5886 5887 5889 5890 5891 5892 5893 5894 5895 5896 5897 5898 5899 5899 5900 5900 5901 5901 5902 5902 5902 5902 5902 5902 5901 5901 5901 5900 5900 5900 5899 5899 5898 5898 5897 5897 5897 5897 5897 5896 5896 5895 5895
5881 5883 5884 5886 5888 5889 5890 5891 5892 5893 5895 5895 5896 5897 5898 5899 5899 5899 5900 5900 5900 5900 5900 5900 5900 5899 5899 5899 5899 5899 5898 5898 5897 5897 5897 5897 5896 5896 5896 5896 5895 5895 5895
5877 5879 5881 5883 5884 5885 5887 5888 5889 5890 5892 5892 5894 5895 5895 5896 5896 5897 5897 5897 5898 5898 5898 5898 5898 5897 5897 5897 5897 5897 5897 5897 5896 5896 5896 5896 5896 5895 5895 5895 5895 5894 5894
5873 5875 5877 5879 5881 5882 5883 5885 5886 5887 5888 5890 5890 5891 5892 5893 5893 5894 5894 5894 5895 5895 5895 5895 5895 5895 5895 5895 5895 5895 5895 5895 5894 5894 5894 5894 5894 5894 5894 5894 5894 5893 5893
5870 5872 5873 5875 5877 5878 5880 5881 5882 5884 5885 5886 5887 5888 5889 5889 5890 5890 5891 5891 5891 5892 5892 5892 5892 5892 5892 5892 5892 5892 5892 5892 5892 5892 5892 5892 5892 5892 5892 5892 5893 5892 5892
5866 5869 5870 5872 5874 5874 5876 5877 5879 5880 5881 5882 5883 5884 5885 5886 5886 5887 5887 5887 5888 5888 5888 5889 5889 5889 5889 5888 5889 5889 5889 5889 5889 5889 5889 5890 5890 5890 5890 5891 5891 5891 5891
5862 5864 5866 5868 5870 5871 5872 5874 5875 5876 5877 5878 5879 5880 5881 5882 5883 5883 5883 5883 5884 5884 5884 5885 5885 5885 5885 5885 5885 5885 5886 5886 5886 5886 5887 5887 5887 5888 5888 5888 5889 5889 5889
5858 5860 5862 5864 5866 5867 5869 5870 5872 5873 5874 5874 5875 5876 5877 5878 5879 5879 5879 5879 5880 5880 5880 5880 5880 5881 5881 5881 5881 5882 5882 5883 5883 5883 5883 5884 5884 5884 5885 5885 5886 5886 5886
5854 5857 5857 5860 5862 5863 5865 5866 5867 5869 5869 5870 5871 5872 5873 5874 5874 5874 5875 5875 5875 5875 5875 5876 5876 5876 5876 5876 5877 5877 5878 5878 5879 5879 5879 5880 5880 5881 5882 5882 5883 5883 5883
5852 5853 5855 5857 5858 5860 5861 5862 5863 5864 5865 5866 5867 5867 5868 5869 5869 5869 5870 5870 5871 5870 5871 5871 5871 5872 5872 5872 5872 5872 5873 5873 5874 5874 5875 5875 5876 5877 5878 5878 5879 5880 5880
5850 5851 5852 5852 5854 5856 5858 5859 5859 5859 5860 5861 5862 5862 5863 5863 5864 5864 5865 5865 5865 5865 5866 5866 5866 5866 5866 5866 5867 5867 5868 5869 5869 5869 5870 5870 5871 5872 5873 5874 5875 5876 5876
5848 5848 5849 5849 5851 5852 5853 5854 5855 5855 5855 5856 5857 5856 5857 5858 5858 5858 5859 5859 5860 5860 5860 5861 5860 5860 5861 5861 5861 5862 5863 5863 5864 5864 5864 5865 5866 5867 5868 5869 5870 5871 5871
5844 5843 5844 5846 5847 5847 5847 5848 5849 5849 5850 5851 5851 5851 5851 5852 5852 5852 5853 5853 5853 5854 5854 5855 5854 5854 5855 5855 5855 5856 5857 5857 5858 5859 5859 5860 5861 5862 5863 5864 5865 5865 5866
5840 5840 5840 5841 5842 5841 5842 5842 5842 5844 5844 5845 5845 5844 5845 5845 5846 5846 5847 5847 5847 5848 5848 5848 5848 5848 5849 5849 5849 5849 5850 5851 5852 5853 5853 5854 5855 5856 5858 5858 5859 5860 5860
5836 5836 5836 5837 5837 5837 5836 5836 5837 5838 5838 5839 5839 5839 5839 5839 5839 5840 5840 5840 5840 5841 5841 5841 5841 5841 5842 5842 5843 5843 5844 5844 5846 5847 5848 5849 5850 5851 5852 5853 5853 5854 5855
5833 5832 5832 5833 5833 5832 5831 5831 5831 5831 5832 5832 5832 5832 5832 5832 5832 5833 5833 5833 5834 5834 5834 5834 5834 5834 5835 5835 5836 5836 5837 5838 5839 5840 5841 5842 5843 5844 5845 5847 5847 5848 5849
5830 5829 5829 5828 5827 5827 5826 5825 5825 5825 5824 5825 5825 5825 5825 5825 5825 5825 5825 5826 5826 5827 5827 5827 5827 5828 5828 5828 5829 5830 5831 5832 5832 5833 5834 5836 5837 5838 5840 5840 5841 5842 5843
5826 5825 5824 5823 5822 5821 5820 5820 5819 5818 5818 5817 5817 5817 5817 5817 5817 5817 5817 5818 5818 5819 5819 5819 5820 5820 5821 5821 5822 5823 5824 5825 5826 5827 5828 5829 5830 5831 5833 5834 5835 5836 5836
5822 5821 5820 5818 5817 5816 5815 5814 5813 5812 5811 5810 5809 5809 5809 5809 5809 5810 5810 5810 5810 5811 5811 5811 5812 5812 5813 5814 5815 5815 5816 5818 5819 5821 5822 5822 5823 5824 5825 5827 5827 5828 5829
5818 5816 5815 5813 5812 5810 5809 5808 5806 5805 5804 5803 5802 5802 5802 5802 5802 5802 5802 5802 5803 5803 5803 5803 5803 5804 5805 5806 5807 5808 5809 5810 5812 5813 5814 5815 5816 5817 5818 5819 5820 5821 5822